TAP1924 LPPT-LPPR

Flight info

Callsign TAP1924
Flight time 0h 29m
Altitude 22000
Route IXIDA DCT ABLEG
Aircraft A320/M-SDE3FGHIRWY/LB1

Departure

Time 2026-05-07 13:02
Airport Lisbon Humberto Delgado Airport (LPPT)

Arrival

Time 2026-05-07 13:31
Airport Francisco de Sá Carneiro Airport (LPPR)
Time Latitude Longitude Altitude Speed Heading
2026-05-07 12:25 38.77116 -9.13111 332 ft 0 kts 78°
2026-05-07 12:25 38.77115 -9.13111 333 ft 0 kts 78°
2026-05-07 12:52 38.77113 -9.13128 333 ft 4 kts 78°
2026-05-07 12:52 38.77107 -9.13161 334 ft 2 kts 78°
2026-05-07 12:52 38.77101 -9.13186 336 ft 4 kts 40°
2026-05-07 12:53 38.77081 -9.13193 338 ft 2 kts 348°
2026-05-07 12:53 38.77101 -9.13198 336 ft 4 kts 348°
2026-05-07 12:53 38.77107 -9.13200 338 ft 0 kts 348°
2026-05-07 12:55 38.77111 -9.13201 338 ft 1 kts 348°
2026-05-07 12:56 38.77112 -9.13201 338 ft 0 kts 348°
2026-05-07 12:56 38.77141 -9.13209 338 ft 9 kts 348°
2026-05-07 12:56 38.77208 -9.13228 333 ft 11 kts 348°
2026-05-07 12:56 38.77288 -9.13250 338 ft 12 kts 346°
2026-05-07 12:57 38.77326 -9.13328 338 ft 11 kts 263°
2026-05-07 12:57 38.77312 -9.13417 343 ft 9 kts 255°
2026-05-07 12:57 38.77298 -9.13485 346 ft 7 kts 256°
2026-05-07 12:57 38.77289 -9.13538 351 ft 8 kts 257°
2026-05-07 12:58 38.77277 -9.13606 357 ft 7 kts 257°
2026-05-07 12:58 38.77269 -9.13648 351 ft 3 kts 258°
2026-05-07 12:58 38.77267 -9.13665 351 ft 3 kts 258°
2026-05-07 12:58 38.77239 -9.13819 354 ft 25 kts 244°
2026-05-07 12:59 38.77130 -9.13898 358 ft 16 kts 206°
2026-05-07 12:59 38.77028 -9.13954 353 ft 17 kts 202°
2026-05-07 12:59 38.76913 -9.14014 357 ft 19 kts 202°
2026-05-07 12:59 38.76778 -9.14088 347 ft 22 kts 203°
2026-05-07 13:00 38.76642 -9.14157 349 ft 18 kts 201°
2026-05-07 13:00 38.76595 -9.14243 337 ft 13 kts 284°
2026-05-07 13:00 38.76643 -9.14360 333 ft 16 kts 320°
2026-05-07 13:00 38.76716 -9.14351 336 ft 11 kts 20°
2026-05-07 13:01 38.76830 -9.14289 345 ft 31 kts 24°
2026-05-07 13:01 38.77243 -9.14071 361 ft 96 kts 23°
2026-05-07 13:01 38.78035 -9.13648 366 ft 148 kts 23°
2026-05-07 13:01 38.79038 -9.13086 836 ft 154 kts 19°
2026-05-07 13:02 38.80011 -9.12573 1626 ft 149 kts 17°
2026-05-07 13:02 38.81027 -9.12038 1997 ft 167 kts 17°
2026-05-07 13:02 38.82135 -9.11290 2323 ft 191 kts 27°
2026-05-07 13:02 38.83333 -9.10368 2625 ft 214 kts 28°
2026-05-07 13:03 38.84670 -9.09336 2964 ft 239 kts 27°
2026-05-07 13:03 38.86171 -9.08177 3424 ft 261 kts 30°
2026-05-07 13:03 38.87741 -9.06956 4175 ft 270 kts 30°
2026-05-07 13:03 38.89366 -9.05676 5027 ft 276 kts 34°
2026-05-07 13:04 38.90832 -9.04050 5893 ft 280 kts 44°
2026-05-07 13:04 38.92280 -9.02346 6802 ft 283 kts 44°
2026-05-07 13:04 38.93730 -9.00659 7655 ft 286 kts 43°
2026-05-07 13:04 38.95217 -8.98930 8547 ft 290 kts 43°
2026-05-07 13:05 38.96732 -8.97170 9424 ft 294 kts 43°
2026-05-07 13:05 38.98259 -8.95396 10198 ft 300 kts 43°
2026-05-07 13:05 38.99845 -8.93547 10479 ft 323 kts 43°
2026-05-07 13:05 39.01562 -8.91537 10811 ft 341 kts 43°
2026-05-07 13:06 39.03344 -8.89453 11470 ft 347 kts 43°
2026-05-07 13:06 39.05148 -8.87345 12202 ft 352 kts 43°
2026-05-07 13:06 39.06975 -8.85206 12952 ft 355 kts 42°
2026-05-07 13:06 39.08793 -8.83075 13696 ft 359 kts 41°
2026-05-07 13:07 39.10652 -8.80897 14333 ft 362 kts 41°
2026-05-07 13:07 39.12520 -8.78706 14959 ft 365 kts 41°
2026-05-07 13:07 39.14411 -8.76488 15600 ft 368 kts 41°
2026-05-07 13:07 39.16312 -8.74253 16247 ft 371 kts 41°
2026-05-07 13:08 39.18063 -8.71837 16863 ft 376 kts 47°
2026-05-07 13:08 39.19793 -8.69298 17534 ft 378 kts 47°
2026-05-07 13:08 39.21543 -8.66729 18166 ft 381 kts 46°
2026-05-07 13:08 39.23302 -8.64148 18683 ft 384 kts 46°
2026-05-07 13:09 39.25066 -8.61585 19182 ft 387 kts 43°
2026-05-07 13:09 39.27173 -8.59437 19670 ft 385 kts 26°
2026-05-07 13:09 39.29661 -8.58219 20171 ft 382 kts
2026-05-07 13:09 39.32307 -8.57837 20688 ft 382 kts
2026-05-07 13:10 39.34967 -8.57563 21204 ft 384 kts
2026-05-07 13:10 39.37639 -8.57296 21700 ft 386 kts
2026-05-07 13:10 39.40328 -8.57029 21863 ft 386 kts
2026-05-07 13:10 39.42940 -8.56766 21893 ft 379 kts
2026-05-07 13:11 39.45564 -8.56498 21890 ft 377 kts
2026-05-07 13:11 39.48176 -8.56229 21890 ft 377 kts
2026-05-07 13:11 39.50800 -8.55957 21896 ft 376 kts
2026-05-07 13:11 39.53408 -8.55685 21890 ft 375 kts
2026-05-07 13:12 39.55979 -8.55416 21896 ft 375 kts
2026-05-07 13:12 39.58585 -8.55142 21897 ft 375 kts
2026-05-07 13:12 39.61192 -8.54869 21899 ft 375 kts
2026-05-07 13:12 39.63798 -8.54600 21899 ft 374 kts
2026-05-07 13:13 39.66399 -8.54331 21899 ft 374 kts
2026-05-07 13:13 39.68971 -8.54062 21896 ft 374 kts
2026-05-07 13:13 39.71574 -8.53787 21895 ft 374 kts
2026-05-07 13:13 39.74179 -8.53511 21904 ft 374 kts
2026-05-07 13:14 39.76751 -8.53242 21901 ft 374 kts
2026-05-07 13:14 39.79347 -8.52973 21897 ft 374 kts
2026-05-07 13:14 39.81947 -8.52704 21897 ft 374 kts
2026-05-07 13:14 39.84543 -8.52433 21895 ft 373 kts
2026-05-07 13:15 39.87136 -8.52158 21892 ft 373 kts
2026-05-07 13:15 39.89697 -8.51887 21894 ft 373 kts
2026-05-07 13:15 39.92294 -8.51615 21893 ft 373 kts
2026-05-07 13:15 39.94892 -8.51346 21909 ft 374 kts
2026-05-07 13:16 39.97488 -8.51074 21906 ft 373 kts
2026-05-07 13:16 40.00083 -8.50801 21904 ft 373 kts
2026-05-07 13:16 40.02642 -8.50533 21901 ft 373 kts
2026-05-07 13:16 40.05246 -8.50262 21901 ft 373 kts
2026-05-07 13:17 40.07841 -8.49992 21898 ft 372 kts
2026-05-07 13:17 40.10362 -8.49724 21665 ft 364 kts
2026-05-07 13:17 40.12865 -8.49451 21405 ft 356 kts
2026-05-07 13:17 40.15322 -8.49185 21136 ft 352 kts
2026-05-07 13:18 40.17771 -8.48922 20891 ft 351 kts
2026-05-07 13:18 40.20177 -8.48667 20640 ft 350 kts
2026-05-07 13:18 40.22616 -8.48409 20387 ft 350 kts
2026-05-07 13:18 40.25036 -8.48155 20136 ft 349 kts
2026-05-07 13:19 40.27466 -8.47897 19885 ft 346 kts
2026-05-07 13:19 40.29835 -8.47642 19510 ft 343 kts
2026-05-07 13:19 40.32213 -8.47387 19085 ft 342 kts
2026-05-07 13:19 40.34591 -8.47134 18667 ft 341 kts
2026-05-07 13:20 40.36164 -8.46966 18376 ft 340 kts
2026-05-07 13:20 40.39283 -8.46637 17777 ft 339 kts
2026-05-07 13:20 40.40872 -8.46469 17490 ft 337 kts
2026-05-07 13:20 40.43186 -8.46222 17078 ft 335 kts
2026-05-07 13:21 40.45521 -8.45975 16668 ft 334 kts
2026-05-07 13:21 40.47808 -8.45736 16264 ft 332 kts
2026-05-07 13:21 40.50120 -8.45493 15860 ft 332 kts
2026-05-07 13:21 40.52421 -8.45249 15456 ft 331 kts
2026-05-07 13:22 40.54725 -8.45003 15052 ft 331 kts
2026-05-07 13:22 40.56993 -8.44756 14654 ft 331 kts
2026-05-07 13:22 40.59289 -8.44507 14251 ft 331 kts
2026-05-07 13:22 40.61593 -8.44259 13841 ft 332 kts
2026-05-07 13:23 40.63899 -8.44010 13407 ft 332 kts
2026-05-07 13:23 40.66208 -8.43761 12977 ft 332 kts
2026-05-07 13:23 40.68507 -8.43515 12564 ft 331 kts
2026-05-07 13:23 40.70753 -8.43375 12393 ft 322 kts 356°
2026-05-07 13:24 40.72937 -8.43837 12126 ft 315 kts 342°
2026-05-07 13:24 40.74951 -8.44923 11570 ft 310 kts 330°
2026-05-07 13:24 40.76863 -8.46255 11008 ft 311 kts 330°
2026-05-07 13:24 40.78736 -8.47559 10753 ft 306 kts 330°
2026-05-07 13:25 40.80641 -8.48882 10323 ft 308 kts 330°
2026-05-07 13:25 40.82539 -8.50193 9951 ft 309 kts 330°
2026-05-07 13:25 40.84454 -8.51514 9509 ft 310 kts 331°
2026-05-07 13:25 40.86342 -8.52815 9088 ft 310 kts 331°
2026-05-07 13:26 40.88259 -8.54142 8658 ft 309 kts 331°
2026-05-07 13:26 40.90166 -8.55461 8247 ft 309 kts 331°
2026-05-07 13:26 40.92051 -8.56768 7812 ft 309 kts 330°
2026-05-07 13:26 40.93957 -8.58090 7378 ft 308 kts 331°
2026-05-07 13:27 40.95855 -8.59404 6927 ft 308 kts 331°
2026-05-07 13:27 40.97753 -8.60720 6460 ft 308 kts 331°
2026-05-07 13:27 40.99685 -8.61980 5984 ft 308 kts 339°
2026-05-07 13:27 41.01730 -8.62781 5492 ft 308 kts 346°
2026-05-07 13:28 41.03793 -8.63292 5028 ft 296 kts 351°
2026-05-07 13:28 41.05805 -8.63671 4564 ft 285 kts 352°
2026-05-07 13:28 41.07718 -8.64010 4112 ft 274 kts 351°
2026-05-07 13:28 41.09583 -8.64358 3676 ft 265 kts 349°
2026-05-07 13:29 41.11363 -8.64717 3255 ft 258 kts 349°
2026-05-07 13:29 41.13099 -8.65103 3039 ft 246 kts 348°
2026-05-07 13:29 41.14779 -8.65501 2523 ft 241 kts 346°
2026-05-07 13:29 41.16408 -8.65899 2042 ft 234 kts 345°
2026-05-07 13:30 41.17979 -8.66302 1620 ft 221 kts 344°
2026-05-07 13:30 41.19395 -8.66675 1280 ft 198 kts 345°
2026-05-07 13:30 41.20664 -8.67009 920 ft 173 kts 346°
2026-05-07 13:30 41.21773 -8.67310 636 ft 153 kts 347°
2026-05-07 13:31 41.22785 -8.67596 368 ft 144 kts 343°
2026-05-07 13:31 41.23730 -8.67846 231 ft 135 kts 345°
2026-05-07 13:31 41.24427 -8.68027 209 ft 59 kts 349°
2026-05-07 13:31 41.24753 -8.68108 211 ft 46 kts 349°
2026-05-07 13:32 41.25049 -8.68175 191 ft 31 kts
2026-05-07 13:32 41.25245 -8.68124 180 ft 14 kts 21°
2026-05-07 13:32 41.25289 -8.68057 180 ft 8 kts 85°
2026-05-07 13:32 41.25270 -8.68022 182 ft 2 kts 144°
2026-05-07 13:33 41.25240 -8.68008 183 ft 12 kts 165°
2026-05-07 13:33 41.25111 -8.67983 194 ft 26 kts 165°
2026-05-07 13:33 41.24912 -8.67922 207 ft 29 kts 168°
2026-05-07 13:33 41.24742 -8.67831 210 ft 24 kts 155°
2026-05-07 13:34 41.24586 -8.67781 218 ft 22 kts 170°
2026-05-07 13:34 41.24263 -8.67635 234 ft 23 kts 130°
2026-05-07 13:34 41.24123 -8.67554 238 ft 23 kts 170°
2026-05-07 13:35 41.23961 -8.67512 238 ft 25 kts 168°
2026-05-07 13:35 41.23788 -8.67468 239 ft 26 kts 168°
2026-05-07 13:35 41.23673 -8.67348 242 ft 18 kts 159°
2026-05-07 13:35 41.23597 -8.67322 242 ft 5 kts 129°
2026-05-07 13:36 41.23592 -8.67283 244 ft 8 kts 91°
2026-05-07 13:36 41.23593 -8.67232 245 ft 2 kts 89°
2026-05-07 13:36 41.23593 -8.67220 245 ft 0 kts 89°